Location: Ohmer (historical)
(38.0096°N, 122.0227°W)
Time: 01:07:14
(UTC+00:00)

Cosmos 2322 Rocket - Pass Details

Date: 14 February 2026
Orbit: 833 x 848 km, 71.0° (Epoch: 10 March)

Event Time Altitude Azimuth Distance (km) Brightness Sun altitude
Rises 14:19:51 0° 191° (S) 3,392 5.3 -8.4°
Reaches altitude 10° 14:22:19 10° 188° (S) 2,460 4.7 -7.9°
Maximum altitude 14:27:53 63° 108° (ESE) 939 2.8 -6.8°
Drops below altitude 10° 14:33:28 10° 29° (NNE) 2,466 4.9 -5.7°
Sets 14:35:56 0° 26° (NNE) 3,402 5.5 -5.2°
